Weather in Nikolayevka

Russia / Altai Krai     53°13′11″N   78°43′18″E
temp.,
°C
wind,
m/s
gust,
m/s
humid.,
%
clouds,
%
prec.,
mm/h
press.,
hPa
HPBL,
m
6 august, fri
fri601:00+16nnw34780 0.0 100944
04:00+15nw33904 0.0 100842
07:00+15nw368910 0.0 1009117
10:00+21nw46612 0.0 1009734
13:00+25nw674445 0.0 10091985
16:00+26nw4637100 0.0 10082384
19:00+24wnw4744100 0.0 1008359
22:00+20nnw3552100 0.0 100968
7 august, sat
sat701:00+18sw116032 0.0 100811
04:00+19ese2260100 0.1 100835
07:00+19se3665100 0.2 1008107
10:00+23sse674790 0.0 1008626
13:00+25s654197 0.0 10081110
16:00+27ssw233982 0.0 10071198
19:00+21e3367100 0.3 100864
22:00+19ese347226 0.0 100754
8 august, sun
sun801:00+18se336838 0.0 100739
04:00+18ese3574100 0.1 100678
07:00+18se487047 0.1 1006142
10:00+24se674597 0.0 1006552
13:00+28sse5737100 0.2 10051252
16:00+31se573131 0.4 10052063
19:00+29ese773497 0.5 1004890
22:00+20se466684 1.5 100581
9 august, mon
mon901:00+19ese476983 1.8 1005103
04:00+18e4575100 0.0 100469
07:00+18e347184 0.1 100582
10:00+24ese4751100 0.1 1005508
13:00+29ene5635100 0.1 10051845
16:00+31ne663067 0.0 10042431
19:00+30nne79334 0.0 10042366
22:00+25nne613465 0.0 1006395
10 august, tue
tue1001:00+20n410625 0.0 1006171
04:00+18n48725 0.0 1006124
07:00+17n49775 0.0 1007196
10:00+24n57473 0.0 1008615
13:00+29n56371 0.0 10071788
16:00+31nne662798 0.0 10073263
19:00+30nne7727100 0.0 10072976
22:00+21ese225822 0.0 100932